Regional Weather Roundup
Issued by NWS Green Bay, WI

Home | Current Version | Previous Version | Text Only | Print | Product List | Glossary On
Versions: 1 2 3 4 5 6 7 8 9 10 11 12 13 14 15 16 17 18 19 20 21 22 23 24 25 26 27 28 29 30 31 32 33 34 35 36 37 38 39 40 41 42 43 44 45 46 47 48 49 50
000
ASUS43 KGRB 272011
RWRGRB

NORTH-CENTRAL AND NORTHEAST WISCONSIN REGIONAL WEATHER ROUNDUP
NATIONAL WEATHER SERVICE GREEN BAY WI
300 PM CDT WED MAY 27 2015

WIZ005-009-010>012-018-019-272100-
NORTH CENTRAL WISCONSIN

CITY           SKY/WX    TMP DP  RH WIND       PRES   REMARKS
IRONWOOD       SUNNY     77  54  44 W10G18    29.86R
MANITOWISH WTR MOSUNNY   75  57  53 W10G18    29.92R
ARBOR VITAE    MOSUNNY   77  59  53 SW14      29.93R
EAGLE RIVER    MOSUNNY   75  51  43 W16       29.92R
LAND O LAKES   MOSUNNY   76  54  44 NW9       29.91R
RHINELANDER    MOSUNNY   75  58  55 W13       29.94R
PHILLIPS       SUNNY     75  58  55 SW8       29.94R
ANTIGO         PTSUNNY   70  61  73 W14G20    29.96R
TOMAHAWK       MOSUNNY   74  56  53 W9        29.95S
MERRILL        MOSUNNY   73  61  64 SW14      29.96R
$$

WIZ013-073-272100-
NORTHEAST WISCONSIN

CITY           SKY/WX    TMP DP  RH WIND       PRES   REMARKS
IRON MOUNTAIN  PTSUNNY   75  57  53 W6        29.86R
MARINETTE      PTSUNNY   72  57  60 W8        29.90S
OCONTO         MOSUNNY   72  59  64 W17G23    29.92R
$$

WIZ017-030-035>037-045-272100-
CENTRAL WISCONSIN

CITY           SKY/WX    TMP DP  RH WIND       PRES   REMARKS
MEDFORD        MOSUNNY   72  60  66 SW13      29.97S
WAUSAU         PTSUNNY   72  59  63 W9        29.95S
MOSINEE        PTSUNNY   72  61  68 SW10G16   29.98S
MARSHFIELD     MOSUNNY   75  57  53 W12G22    29.97S
WISC RAPIDS    MOSUNNY   77  55  46 W10G18    29.98S
STEVENS POINT  MOSUNNY   71  56  58 W10       29.98S
WAUPACA        MOSUNNY   76  59  55 W16       29.97S
SHAWANO        MOSUNNY   74  59  59 W14G22    29.94S
CLINTONVILLE   MOSUNNY   73  57  56 W16       29.95R
$$

WIZ038-039-048-051-272100-
FOX VALLEY

CITY           SKY/WX    TMP DP  RH WIND       PRES   REMARKS
NWS GREEN BAY  MOSUNNY   73  61  65 W15       29.95R
APPLETON       PTSUNNY   70  55  60 SW10G16   29.97S
OSHKOSH        MOSUNNY   71  57  61 W7        29.97S
FOND DU LAC    MOSUNNY   70  56  61 W8        29.98S
$$

WIZ022-050-052-272100-
EAST CENTRAL WISCONSIN

CITY           SKY/WX    TMP DP  RH WIND       PRES   REMARKS
STURGEON BAY   MOSUNNY   66  57  72 W13G21    29.96R
MANITOWOC      PTSUNNY   69  58  67 W10       29.96S
SHEBOYGAN      MOSUNNY   69  56  62 VRB6      29.97R
$$

LMZ563-521-522-541>543-272100-
LAKESHORE

STATION/POSITION TIME  TEMP    WIND        PRES    VSBY  WAVE
                       AIR SEA DIR/SP/G                  HT/PER
                 (UTC) (F)     (DEG/KT/KT) (MB)    (MI)  (FT/S)
SHEBOYGAN LKSHOR 2000   65      10/  6/  6 1014.9R
KEWAUNEE LKSHORE 1900   65     240/  7/ 11 1013.2R
ALGOMA MARINA    1908          250/  8/  9   N/A
NORTHPORT PIER   1900   66     230/  5/ 10 1012.2R
N MID LAKE BUOY  1950   42 37  210/  8/ 10 1013.1R         2/ 5
SISTER BAY LKSHO 1918   69     220/ 10/ 12   N/A
CHAMBERS ISLAND  1900   64     180/  7/ 18 1012.9R
MENOMINEE LKSHOR 1900   64     170/  8/ 11 1013.2R
$$


USA.gov is the U.S. government's official web portal to all federal, state and local government web resources and services.